EW5523 Weather Reports


Display with metric or nautical units.
time (UTC)temp
F
wind
direction
speed
MPH
gust
MPH
rain 1hr
in
rain 24hr
in
rain mn
in
humidity
%
barometer
mb
20260904114530 71 264 0.0 0.0 0.00 0.00 0.00 66 1012.8
20260904113029 71 250 0.0 0.0 0.00 0.00 0.00 64 1013.0
20260904111528 72 259 0.0 4.0 0.00 0.00 0.00 62 1012.9
20260904110028 72 237 0.0 3.0 0.00 0.00 0.00 63 1013.0
20260904104527 73 203 0.0 0.0 0.00 0.00 0.00 62 1012.9
20260904103027 72 224 0.0 0.0 0.00 0.00 0.00 62 1013.1
20260904101527 72 209 0.0 6.0 0.00 0.00 0.00 62 1013.0
20260904100026 73 292 0.0 5.0 0.00 0.00 0.00 61 1013.0
20260904094539 73 205 0.0 8.0 0.00 0.00 0.00 61 1013.2
20260904093023 72 150 0.0 3.0 0.00 0.00 0.00 63 1013.1
20260904091523 72 216 0.0 5.0 0.00 0.00 0.00 62 1013.2
20260904090039 72 147 1.0 6.0 0.00 0.00 0.00 64 1013.2
20260904084522 72 193 0.0 5.0 0.00 0.00 0.00 64 1013.3
20260904083027 71 186 0.0 4.0 0.00 0.00 0.00 65 1013.2
20260904081528 71 191 1.0 6.0 0.00 0.00 0.00 66 1013.4
20260904080015 70 163 0.0 1.0 0.00 0.00 0.00 69 1013.5
20260904074517 69 134 0.0 4.0 0.00 0.00 0.00 70 1013.4
20260904073012 70 171 0.0 5.0 0.00 0.00 0.00 69 1013.3
20260904071512 69 162 0.0 0.0 0.00 0.00 0.00 70 1013.5
20260904070011 70 222 0.0 0.0 0.00 0.00 0.00 68 1013.6
20260904064509 69 168 0.0 4.0 0.00 0.00 0.00 68 1013.7
20260904063011 69 193 0.0 1.0 0.00 0.00 0.00 69 1013.8
20260904061516 69 155 0.0 4.0 0.00 0.00 0.00 69 1013.9
20260904060002 67 143 0.0 3.0 0.00 0.00 0.00 72 1013.8
20260904054504 67 224 0.0 3.0 0.00 0.00 0.00 71 1013.9
20260904053105 67 179 0.0 0.0 0.00 0.00 0.00 75 1013.9
20260904051555 66 166 0.0 0.0 0.00 0.00 0.00 76 1013.9
20260904050056 65 158 0.0 0.0 0.00 0.00 0.00 77 1013.8
20260904044551 64 213 0.0 0.0 0.00 0.00 0.00 78 1013.9
20260904043057 63 213 0.0 0.0 0.00 0.00 0.00 80 1013.9
20260904041544 62 183 0.0 0.0 0.00 0.00 0.00 82 1013.8
20260904040056 60 183 0.0 0.0 0.00 0.00 0.00 83 1013.7
20260904034538 59 183 0.0 0.0 0.00 0.00 0.00 85 1013.8
20260904033041 58 211 0.0 0.0 0.00 0.00 0.00 86 1013.7
20260904031549 57 241 0.0 0.0 0.00 0.00 0.00 88 1013.6
20260904030036 56 241 0.0 0.0 0.00 0.00 0.00 89 1013.6
20260904024536 56 241 0.0 0.0 0.00 0.00 0.00 91 1013.5
20260904023035 55 241 0.0 0.0 0.00 0.00 0.00 92 1013.5
20260904021533 54 241 0.0 0.0 0.00 0.00 0.00 93 1013.4
20260904020033 53 241 0.0 0.0 0.00 0.00 0.00 93 1013.4
20260904014532 53 241 0.0 0.0 0.00 0.00 0.00 92 1013.4
20260904013029 54 241 0.0 0.0 0.00 0.00 0.00 91 1013.4
20260904011530 54 241 0.0 0.0 0.00 0.00 0.00 92 1013.3
20260904010029 54 241 0.0 0.0 0.00 0.00 0.00 92 1013.3
20260904004525 54 241 0.0 0.0 0.00 0.00 0.00 91 1013.2
20260904003023 54 241 0.0 0.0 0.00 0.00 0.00 91 1013.1
20260904001522 54 241 0.0 0.0 0.00 0.00 0.00 91 1013.1
20260904000022 54 241 0.0 0.0 0.00 0.00 0.00 90 1013.0
20260903234520 54 241 0.0 0.0 0.00 0.00 0.00 90 1013.0
20260903233018 55 241 0.0 0.0 0.00 0.00 0.00 89 1012.9
20260903231518 55 241 0.0 0.0 0.00 0.00 0.00 88 1012.8
20260903230021 56 241 0.0 0.0 0.00 0.00 0.00 88 1012.8
20260903224518 56 241 0.0 0.0 0.00 0.00 0.00 88 1012.7
20260903223013 56 241 0.0 0.0 0.00 0.00 0.00 87 1012.8
20260903221511 56 241 0.0 0.0 0.00 0.00 0.00 86 1012.7
20260903220013 57 241 0.0 0.0 0.00 0.00 0.00 85 1012.6
20260903214513 57 241 0.0 0.0 0.00 0.00 0.00 83 1012.6
20260903213006 58 241 0.0 0.0 0.00 0.00 0.00 82 1012.6
20260903211510 59 241 0.0 0.0 0.00 0.00 0.00 81 1012.5
20260903204601 60 241 0.0 2.0 0.00 0.00 0.00 79 1012.5
20260903203057 60 261 0.0 0.0 0.00 0.00 0.00 79 1012.5
20260903201601 60 260 0.0 0.0 0.00 0.00 0.00 78 1012.4
20260903200058 60 260 0.0 0.0 0.00 0.00 0.00 77 1012.5
20260903194556 61 259 0.0 0.0 0.00 0.00 0.00 76 1012.4
20260903193051 61 258 0.0 0.0 0.00 0.00 0.00 74 1012.3
20260903191551 61 258 0.0 0.0 0.00 0.00 0.00 74 1012.2
20260903190051 62 247 0.0 3.0 0.00 0.00 0.00 73 1012.1
20260903184551 62 222 0.0 0.0 0.00 0.00 0.00 71 1012.0
20260903183048 63 226 0.0 0.0 0.00 0.00 0.00 69 1011.9
20260903181546 63 233 0.0 1.0 0.00 0.00 0.00 67 1011.8
20260903180047 64 246 0.0 5.0 0.00 0.00 0.00 65 1011.8
20260903174545 64 238 0.0 0.0 0.00 0.00 0.00 64 1011.6
20260903173045 64 240 0.0 0.0 0.00 0.00 0.00 63 1011.6
20260903171543 65 236 0.0 0.0 0.00 0.00 0.00 61 1011.5
20260903170053 66 233 0.0 0.0 0.00 0.00 0.00 59 1011.4
20260903164543 66 201 0.0 0.0 0.00 0.00 0.00 58 1011.3
20260903163042 67 216 0.0 0.0 0.00 0.00 0.00 57 1011.4
20260903161542 67 206 0.0 0.0 0.00 0.00 0.00 55 1011.3
20260903160042 68 164 0.0 0.0 0.00 0.00 0.00 54 1011.2
20260903154546 68 174 0.0 1.0 0.00 0.00 0.00 54 1011.2
20260903153046 69 175 0.0 2.0 0.00 0.00 0.00 53 1011.1
20260903151542 70 216 0.0 1.0 0.00 0.00 0.00 52 1011.0
20260903150048 71 152 0.0 3.0 0.00 0.00 0.00 50 1011.0
20260903144543 72 156 0.0 4.0 0.00 0.00 0.00 48 1011.0
20260903143052 73 176 0.0 6.0 0.00 0.00 0.00 48 1011.0
20260903141543 73 180 0.0 2.0 0.00 0.00 0.00 47 1011.0
20260903140037 74 212 0.0 12.0 0.00 0.00 0.00 45 1010.9
20260903134536 75 201 0.0 5.0 0.00 0.00 0.00 46 1010.9
20260903133035 75 216 0.0 6.0 0.00 0.00 0.00 47 1010.9
20260903131534 75 199 0.0 8.0 0.00 0.00 0.00 46 1011.0
20260903130034 75 214 0.0 5.0 0.00 0.00 0.00 47 1011.1
20260903124534 75 218 0.0 5.0 0.00 0.00 0.00 46 1011.0
20260903123031 76 269 0.0 5.0 0.00 0.00 0.00 46 1011.2
20260903121530 75 186 0.0 7.0 0.00 0.00 0.00 47 1011.3
20260903120033 75 209 0.0 9.0 0.00 0.00 0.00 46 1011.3